Terminal Aerodrome Forecast
Issued by NWS Bismarck, ND

Home | Current Version | Previous Version | Graphics & Text | Print | Product List | Glossary On
Versions: 1 2 3 4 5 6 7 8 9 10 11 12 13 14 15 16 17 18 19 20
691
FTUS43 KBIS 151130
TAFBIS
TAF
KBIS 151130Z 1512/1612 32015G22KT P6SM SCT020
      TEMPO 1512/1515 BKN020
     FM152100 36006KT P6SM FEW250
     FM160100 08007KT P6SM SCT250
     FM160900 11012KT P6SM BKN250=

USA.gov is the U.S. government's official web portal to all federal, state and local government web resources and services.